Location: Newark
(7.0858°N, 171.3717°E)
Time: 05:06:37
(UTC+00:00)

Vanguard 2 - Pass Details

Date: 01 December 2020
Orbit: 553 x 2937 km, 32.9° (Epoch: 26 January)

Event Time Altitude Azimuth Distance (km) Brightness Sun altitude
Rises 20:48:43 0° 269° (W) 5,321 11.4 29.8°
Reaches altitude 10° 20:54:07 10° 285° (WNW) 3,801 10.6 31.0°
Maximum altitude 21:00:09 19° 326° (NW) 2,579 9.9 32.3°
Drops below altitude 10° 21:04:39 10° 9° (N) 2,706 10.2 33.2°
Sets 21:07:40 0° 29° (NNE) 3,349 10.8 33.8°
